Content
SEND FEEDBACK

Daily
Averages
Monthly
Summary
United States of America

TAOS, NEW MEXICO


Home > North America > United States > New Mexico
Elevation: 8998 feet     Latitude: 36 23N     Longitude: 105 25W

WEATHER
 
SELECT A DAY
Number of Records: 167,330;   Date Range: 10/2/07 - 7/11/14
 
SHARE

PRINT THIS DATA

[ ← Previous Day ]
WEATHER ALMANAC - JANUARY 23, 2013
[ Next Day → ]
[ °C ]   °F
Weather ElementAverageHighLow
Temperature12.8 °F47.7 °F (3:15 pm)-13.2 °F (5:55 am)
Dewpoint-2.1 °F19 °F (2:35 pm)-17.3 °F (5:55 am)
Humidity58.8 %84 % (2:15 am)13 % (3:55 pm)
Barometer30.40 in30.47 in (9:15 am)30.34 in (2:15 pm)
Wind Speed2.9 mph11.5 mph (5:15 pm)
Wind Gust16.1 mph (3:15 pm)
Weather ElementAverage
Visibility10 mi
Wind DirectionENE (75.1 °)

Weather ElementTotal
Precipitation---
Heating Degree Days47.8 (Base 65)
Averaged from 68 records on January 23, 2013
WEATHER CONDITIONS BREAKOUT
WIND DIRECTION BREAKOUT
WEATHER BY HOUR - JANUARY 23, 2013
[ °C ]   °F
Local TimeTemperatureDewpointHumidityBarometerVisibilityWind DirectionWind SpeedGust SpeedPrecipitationEventsConditions
12:35 AM-5.4 °F-9.6 °F82 %30.40 in10.0 miCalmClear
12:55 AM-4.5 °F-9.6 °F79 %30.40 in10.0 miCalmClear
1:15 AM-5.8 °F-10.1 °F82 %30.40 in10.0 miCalmClear
1:35 AM-6.5 °F-11.6 °F79 %30.40 in10.0 miCalmClear
1:55 AM-7.1 °F-12.3 °F78 %30.41 in10.0 miCalmClear
2:15 AM-5.6 °F-9.2 °F84 %30.42 in10.0 miCalmClear
2:35 AM-6.5 °F-11.2 °F80 %30.42 in10.0 miCalmClear
2:55 AM-8.5 °F-13.2 °F80 %30.42 in10.0 miCalmClear
3:15 AM-7.2 °F-11.4 °F82 %30.42 in10.0 miCalmClear
3:35 AM-7.1 °F-10.8 °F84 %30.42 in10.0 miCalmClear
3:55 AM-10.7 °F-14.8 °F82 %30.42 in10.0 miCalmClear
4:15 AM-9.4 °F-13.7 °F81 %30.41 in10.0 miSSE (150°)3.5 mphClear
4:35 AM-10.7 °F-14.6 °F83 %30.41 in10.0 miCalmClear
5:15 AM-11.2 °F-15.0 °F83 %30.42 in10.0 miCalmClear
5:35 AM-10.7 °F-15.5 °F79 %30.42 in10.0 miCalmClear
5:55 AM-13.2 °F-17.3 °F82 %30.44 in10.0 miCalmClear
6:15 AM-10.1 °F-14.3 °F82 %30.44 in10.0 miCalmClear
6:35 AM-11.4 °F-15.5 °F82 %30.44 in10.0 miCalmClear
6:55 AM-12.5 °F-16.6 °F82 %30.44 in10.0 miCalmClear
7:15 AM-10.8 °F-14.6 °F83 %30.44 in10.0 miCalmClear
7:35 AM-12.6 °F-16.8 °F82 %30.44 in10.0 miCalmClear
7:55 AM-11.4 °F-15.0 °F84 %30.44 in10.0 miCalmClear
8:15 AM-9.6 °F-13.5 °F83 %30.45 in10.0 miCalmClear
8:35 AM-9.6 °F-14.6 °F78 %30.46 in10.0 miCalmClear
8:55 AM-5.6 °F-10.1 °F81 %30.46 in10.0 miCalmClear
9:15 AM-1.8 °F-6.5 °F80 %30.47 in10.0 miCalmClear
9:35 AM3.2 °F-2.0 °F79 %30.47 in10.0 miCalmClear
9:55 AM3.2 °F-2.6 °F77 %30.47 in10.0 miCalmClear
10:15 AM7.0 °F-0.4 °F72 %30.46 in10.0 miCalmClear
10:35 AM10.8 °F1.9 °F68 %30.45 in10.0 miNNE (30°)3.5 mphClear
10:55 AM6.8 °F0.5 °F75 %30.45 in10.0 miNNE (30°)5.8 mphClear
11:15 AM10.4 °F3.0 °F72 %30.44 in10.0 miNE (50°)3.5 mphClear
11:35 AM12.2 °F4.1 °F70 %30.42 in10.0 miCalmClear
11:55 AM14.9 °F5.5 °F66 %30.41 in10.0 miCalmClear
12:15 PM18.0 °F7.2 °F63 %30.39 in10.0 miCalmClear
12:35 PM20.5 °F8.8 °F61 %30.38 in10.0 miCalmClear
12:55 PM23.7 °F9.5 °F55 %30.37 in10.0 miCalmClear
1:15 PM26.1 °F9.3 °F49 %30.36 in10.0 miCalmClear
1:35 PM28.2 °F4.5 °F36 %30.35 in10.0 miCalmClear
2:15 PM32.7 °F14.4 °F47 %30.34 in10.0 miCalmClear
2:35 PM34.2 °F19.0 °F54 %30.34 in10.0 miCalmClear
2:55 PM40.1 °F18.0 °F41 %30.34 in10.0 miCalmClear
3:15 PM47.7 °F0.1 °F14 %30.35 in10.0 miWest (270°)9.2 mph16.1 mphClear
3:35 PM43.3 °F9.9 °F26 %30.36 in10.0 miCalmClear
3:55 PM46.8 °F-2.7 °F13 %30.37 in10.0 miWest (270°)6.9 mphClear
4:15 PM46.2 °F-0.4 °F14 %30.36 in10.0 miWSW (240°)5.8 mphClear
4:35 PM40.3 °F6.3 °F24 %30.36 in10.0 miWSW (250°)8.1 mphClear
4:55 PM35.1 °F5.4 °F29 %30.36 in10.0 miWSW (250°)10.4 mphClear
5:15 PM37.4 °F2.7 °F23 %30.37 in10.0 miWSW (250°)11.5 mphClear
5:35 PM34.0 °F3.2 °F27 %30.38 in10.0 miWSW (250°)10.4 mphClear
5:55 PM31.3 °F2.8 °F30 %30.38 in10.0 miSSW (200°)4.6 mphClear
6:15 PM32.4 °F0.7 °F26 %30.38 in10.0 miSW (230°)9.2 mphClear
6:35 PM27.1 °F3.7 °F37 %30.38 in10.0 miWSW (240°)9.2 mphClear
6:55 PM28.4 °F2.8 °F34 %30.37 in10.0 miWSW (240°)11.5 mphClear
7:15 PM28.4 °F1.6 °F32 %30.38 in10.0 miSW (220°)6.9 mphClear
7:35 PM27.5 °F3.9 °F37 %30.38 in10.0 miSouth (180°)8.1 mphClear
7:55 PM26.2 °F2.1 °F36 %30.38 in10.0 miSW (230°)8.1 mphClear
8:15 PM23.9 °F4.8 °F44 %30.37 in10.0 miSSW (210°)11.5 mphClear
8:35 PM28.9 °F3.6 °F34 %30.38 in10.0 miSSW (200°)6.9 mphClear
9:15 PM34.3 °F2.3 °F26 %30.37 in10.0 miSSW (210°)5.8 mphClear
9:35 PM32.9 °F2.8 °F28 %30.38 in10.0 miSSW (210°)5.8 mphClear
9:55 PM34.9 °F2.1 °F25 %30.38 in10.0 miSW (220°)6.9 mphClear
10:15 PM23.0 °F6.8 °F50 %30.38 in10.0 miNE (50°)8.1 mphClear
10:35 PM21.7 °F6.4 °F52 %30.38 in10.0 miNW (320°)5.8 mphClear
10:55 PM14.9 °F5.9 °F68 %30.38 in10.0 miCalmClear
11:15 PM19.9 °F5.9 °F55 %30.38 in10.0 miNE (50°)3.5 mphClear
11:35 PM17.1 °F5.4 °F60 %30.37 in10.0 miENE (60°)3.5 mphClear
11:55 PM20.5 °F6.1 °F54 %30.37 in10.0 miCalmClear
Hourly data recorded from KAXX, located miles away from Taos, New Mexico







STORIES FROM OUR PARTNERS